Theta_e
319 319 316 318 320 321 322 325 327 327 324 320 319 321 321 323 321 320 320 319 321 321 320 320 323 324 322 323 321 325 327 327 327 331 339 340 338 339 340 339 338 335 334 334 333 334 334 333 333 334 335 334 334 334 334 334 334 334 333 332 329 326 326 325 324 324 324 323 319 316 314 312 309 306 305 309 315 319 321 324 326 328 326 325 326 326 328 329 328 326 322 317 314 313 311 310 309
319 319 316 318 320 321 325 326 327 325 320 318 320 321 321 321 322 321 321 322 322 320 320 319 322 323 321 321 320 324 329 329 327 333 340 339 339 339 339 339 337 335 335 335 333 334 334 334 334 333 334 334 334 334 333 333 333 333 332 330 327 325 325 325 324 323 323 323 321 319 317 314 311 307 305 307 316 322 325 327 328 327 326 327 328 326 323 320 320 318 314 310 308 308 308 308 308
319 318 316 320 322 322 325 326 325 322 319 318 319 321 321 321 322 323 322 322 321 320 321 319 321 321 321 323 321 324 329 331 330 333 338 338 339 338 338 339 337 335 335 334 333 334 335 334 334 333 333 332 332 333 333 333 332 332 331 328 325 325 325 325 324 322 322 322 321 321 319 316 314 310 306 305 311 321 327 328 327 326 327 330 331 331 325 314 312 312 309 307 308 308 308 309 308
318 317 317 323 326 326 328 328 326 321 318 318 318 320 322 322 323 323 321 321 321 321 321 320 323 322 321 323 321 325 330 332 333 333 336 338 337 335 337 338 337 336 334 334 333 334 333 334 334 333 334 332 330 331 332 333 331 330 329 326 324 325 326 326 325 323 322 322 321 321 321 319 316 313 310 306 307 316 326 328 326 327 328 330 330 330 324 313 308 308 308 308 308 309 309 309 309
318 316 318 323 328 328 327 325 324 321 318 319 319 320 322 322 323 321 320 320 320 321 321 320 323 322 319 322 322 327 330 331 334 334 336 338 336 334 335 337 338 337 334 335 334 334 333 333 334 333 334 334 331 329 329 330 329 328 327 324 323 325 326 327 326 324 323 322 321 321 322 320 317 316 312 308 307 315 324 326 325 327 327 326 326 325 320 315 312 308 308 308 308 309 309 309 309
316 316 318 321 325 326 325 323 321 320 320 322 320 320 322 321 322 320 320 320 320 321 321 321 322 320 321 324 323 328 330 330 335 337 338 339 337 334 334 336 338 337 336 336 335 335 333 332 334 334 334 334 333 330 326 325 326 326 324 322 323 325 325 327 326 325 324 323 322 321 321 320 318 316 314 311 307 314 323 324 325 327 324 323 323 323 322 319 312 307 308 308 308 308 308 309 309
317 319 321 322 324 323 326 324 321 322 321 322 320 320 321 321 321 320 320 319 319 319 319 321 319 320 324 324 323 327 329 329 334 337 337 337 337 334 333 335 338 338 337 337 336 336 334 331 333 334 334 334 334 331 327 323 322 323 323 322 324 325 326 328 326 325 325 324 323 321 320 320 318 316 315 313 308 314 322 322 322 325 324 324 326 328 326 317 309 307 308 307 307 307 308 308 308
318 322 324 324 327 325 326 324 321 323 321 321 320 319 320 320 321 319 320 319 319 319 318 319 317 319 320 322 327 325 325 327 329 334 336 335 334 332 333 336 339 338 338 338 337 337 335 332 333 334 334 334 333 330 327 323 320 322 322 323 324 325 327 329 327 325 325 325 323 320 319 319 318 315 315 313 309 313 318 318 319 322 324 325 327 328 323 313 307 307 307 307 307 307 307 308 308
319 323 324 323 327 325 323 323 321 322 321 320 320 320 320 320 320 319 319 318 318 319 318 318 318 320 318 322 328 324 322 324 325 330 334 333 332 332 334 337 339 339 339 338 337 338 335 332 333 334 334 334 334 331 329 324 320 321 322 322 324 325 328 329 326 324 325 324 323 321 319 319 318 315 314 313 310 311 314 317 319 322 326 325 324 322 315 309 307 306 306 306 306 306 306 306 307
321 322 323 324 325 324 321 321 322 322 321 321 319 319 320 319 320 319 319 318 318 319 320 319 319 319 317 323 326 325 322 319 321 326 329 331 332 332 335 338 339 340 339 338 337 338 335 333 333 334 334 334 334 333 330 327 322 321 321 323 324 326 328 329 327 324 323 323 323 323 320 318 318 315 314 312 310 309 311 315 318 320 324 323 318 313 308 307 306 306 306 306 305 305 305 305 306
323 321 322 325 323 321 320 321 323 322 321 320 319 319 319 319 320 320 319 318 317 319 320 317 318 318 317 323 326 327 322 316 319 322 325 329 331 333 337 338 339 339 340 339 337 337 336 334 334 334 334 334 335 334 332 330 325 322 323 326 326 326 329 328 327 325 323 323 323 323 321 318 318 316 313 312 310 308 308 310 311 313 315 314 310 307 306 306 306 305 305 305 305 304 304 304 305
326 324 322 324 323 322 321 321 322 322 321 320 319 319 319 319 319 319 319 318 317 319 319 317 319 318 317 323 325 325 320 317 317 319 324 327 330 332 335 337 338 340 339 339 338 337 336 334 334 334 334 334 334 334 334 332 330 327 327 329 327 327 329 328 327 325 323 323 323 322 322 320 318 317 315 312 310 308 307 306 306 306 307 306 306 305 305 305 304 305 305 306 306 306 306 306 306
326 327 324 323 325 325 322 322 322 322 322 320 319 319 319 318 318 319 319 318 317 317 318 317 318 318 318 323 324 323 319 317 315 318 323 326 329 332 334 336 337 339 339 338 338 338 337 335 334 334 334 334 334 334 334 334 333 332 331 331 330 328 328 328 327 326 324 323 323 321 321 321 319 318 317 314 311 309 308 306 305 304 305 305 305 305 305 306 308 309 311 312 312 312 311 310 309
324 325 325 326 327 325 322 322 322 321 320 320 319 319 319 318 318 318 317 317 317 318 319 317 317 317 318 322 323 323 321 317 313 316 321 325 330 333 335 337 337 339 339 338 338 338 337 336 335 335 334 334 334 335 334 335 334 333 333 332 332 329 328 328 328 327 325 323 322 321 320 321 320 319 319 317 314 312 311 308 307 306 305 305 306 307 309 312 314 316 316 316 316 316 315 313 311
323 323 325 326 325 323 323 322 323 321 320 319 319 318 318 318 317 318 317 317 318 318 319 317 316 317 317 322 323 323 322 316 313 315 317 321 327 332 334 335 336 338 338 338 338 338 338 337 336 336 335 335 335 335 334 335 334 334 333 333 332 331 329 328 328 328 325 322 321 320 319 320 320 320 320 319 316 314 313 312 309 309 308 308 310 313 315 317 318 318 318 318 318 317 316 315 313
321 322 325 323 322 322 322 322 322 321 319 319 318 318 317 317 317 317 317 317 318 317 317 317 316 316 318 325 325 322 321 316 313 314 315 316 319 326 331 333 335 336 337 338 337 338 338 337 337 337 336 335 335 335 335 335 334 334 334 333 333 332 331 329 328 328 327 323 320 319 319 319 319 320 320 320 319 316 315 315 313 311 311 312 314 317 318 319 319 319 319 318 318 318 317 316 313
319 322 325 322 322 322 322 323 321 320 319 318 317 318 317 317 316 316 317 316 317 316 316 317 316 316 316 320 322 320 320 317 314 313 314 315 315 317 322 329 334 334 335 336 337 337 337 337 337 337 337 336 336 336 335 335 335 335 335 334 334 333 332 330 328 328 328 325 322 320 320 319 318 319 320 320 320 319 317 318 316 314 315 316 317 319 319 319 319 319 319 319 318 318 317 316 314
320 323 324 321 322 322 323 321 320 321 319 317 317 317 317 317 316 316 316 316 316 317 316 316 316 316 315 315 316 317 318 317 315 313 313 314 315 314 315 321 328 332 333 333 334 335 334 335 335 336 337 336 336 336 336 336 336 335 335 334 334 333 333 332 329 327 328 326 324 322 322 322 320 318 319 321 321 320 319 319 319 318 317 318 319 319 320 320 320 320 319 319 318 318 317 317 315
322 323 322 322 323 321 320 319 318 320 319 317 317 317 317 317 316 316 316 316 316 316 316 317 316 316 315 315 315 315 315 316 314 313 314 314 314 314 313 315 319 325 330 330 330 332 331 331 334 335 336 337 336 336 337 337 337 336 336 335 335 334 333 333 331 328 328 327 325 323 324 326 325 321 318 320 322 321 321 320 320 320 319 319 319 319 320 320 320 320 320 319 318 318 317 317 316
321 323 323 322 322 319 318 318 317 318 318 318 317 317 318 317 317 316 315 316 316 316 316 316 317 317 315 315 315 315 315 315 314 314 314 314 314 314 314 314 314 317 321 324 326 328 329 329 332 334 335 336 335 335 336 337 337 337 336 335 335 335 334 334 332 330 328 329 327 325 327 329 327 325 321 319 322 322 321 321 321 321 321 320 319 320 320 320 321 320 320 319 319 318 317 317 317
320 321 322 320 319 319 318 317 317 317 318 318 317 317 317 317 317 317 316 316 316 316 317 316 317 317 316 316 316 315 315 315 315 314 314 314 314 314 314 314 314 314 315 318 321 323 325 326 327 331 333 334 334 334 335 336 336 336 336 335 335 335 335 334 333 332 330 330 330 327 329 330 328 329 325 320 321 322 322 321 322 322 322 321 321 320 320 321 321 321 320 320 320 319 318 317 317
319 319 319 318 317 318 317 317 316 317 318 318 317 317 317 317 317 317 317 317 317 317 318 318 318 318 317 317 316 316 315 315 315 315 315 315 314 314 314 314 315 315 315 315 317 317 318 320 321 326 329 331 333 333 333 334 335 335 335 335 335 335 335 335 334 334 332 331 331 329 330 331 329 329 328 324 321 322 323 322 322 322 322 322 322 321 321 321 321 321 321 321 321 320 319 318 317
318 318 317 317 317 318 317 316 316 317 318 317 317 317 317 317 317 317 317 317 317 318 318 317 318 318 318 317 317 316 316 315 315 315 315 315 315 314 314 314 314 315 315 315 315 316 315 316 317 320 325 328 330 331 330 332 333 334 334 334 335 335 335 335 335 334 333 332 332 330 330 331 329 329 329 328 324 322 323 323 322 322 322 322 323 322 322 322 322 322 321 321 321 320 319 318 318
316 317 317 316 317 317 316 316 315 316 317 316 316 316 317 317 317 317 317 317 317 317 318 317 317 317 317 317 316 316 316 316 316 315 315 315 315 315 315 316 317 317 316 315 315 316 315 315 315 316 320 324 326 327 327 328 330 332 333 334 334 334 334 334 335 334 334 333 332 331 331 330 330 329 329 329 327 324 323 323 323 323 322 323 323 323 323 323 323 322 321 321 321 320 319 318 318
315 317 317 317 317 316 315 315 315 315 316 316 316 316 317 317 317 317 317 317 317 317 317 317 317 316 316 316 316 316 316 316 316 316 315 315 315 315 316 318 321 321 317 316 315 316 315 315 315 315 316 319 321 323 325 325 327 330 332 333 332 333 333 333 334 334 333 333 332 331 331 331 330 329 329 329 328 327 325 324 324 323 323 323 323 323 324 324 323 323 323 322 322 321 319 318 318
316 317 317 317 316 316 315 316 315 316 316 315 316 316 317 317 317 317 317 317 317 317 317 317 317 316 316 316 316 316 316 316 316 316 315 315 315 315 315 316 320 321 318 317 317 316 315 315 315 315 314 316 318 321 322 321 322 326 330 331 330 330 332 333 333 333 333 333 332 331 331 331 330 329 329 329 329 328 327 325 324 324 323 323 323 324 325 324 323 323 324 323 323 321 320 319 318
318 318 318 317 317 316 316 316 316 316 316 315 316 317 317 317 317 317 318 318 317 317 318 317 317 317 316 316 316 316 316 316 316 316 316 315 315 315 315 315 316 317 317 316 316 316 316 315 314 314 314 315 316 318 319 318 318 321 326 329 327 325 329 333 332 333 333 332 331 331 331 331 330 330 329 329 329 328 327 326 325 324 323 324 324 324 325 324 323 323 324 323 323 322 320 319 317
318 318 317 317 317 317 317 317 316 316 317 316 316 317 317 316 317 317 318 318 317 317 317 317 317 317 316 316 316 316 316 316 316 316 316 316 316 315 316 315 315 315 316 315 315 315 315 314 314 314 314 314 315 316 317 318 319 320 321 324 324 321 327 332 332 331 331 331 330 330 331 331 331 330 329 329 329 328 328 327 327 326 324 324 324 324 324 324 324 323 323 323 323 322 321 319 318
318 318 318 317 317 317 317 317 317 317 317 317 316 317 318 317 318 317 317 318 318 317 317 317 317 317 317 317 316 316 316 316 316 316 316 316 316 316 316 316 316 316 315 315 315 315 315 314 314 314 314 314 314 314 316 316 318 320 319 320 322 322 324 328 327 326 327 330 329 329 331 331 331 331 329 329 329 329 328 328 328 327 326 325 325 324 324 324 324 324 323 322 322 322 322 320 318
318 317 318 318 317 317 318 318 318 317 317 316 316 318 320 318 318 317 317 318 317 317 317 317 317 317 318 317 317 317 317 317 317 317 317 317 316 316 316 316 316 316 315 315 315 315 315 314 314 314 314 314 314 314 314 314 315 318 318 317 318 319 321 323 322 321 323 328 329 330 332 332 331 331 330 329 329 329 329 329 328 328 327 326 326 325 325 325 325 324 323 322 322 321 321 320 318
318 317 318 320 319 318 318 318 317 317 317 317 317 318 319 318 319 318 318 318 317 318 317 317 318 318 318 318 318 318 317 318 317 317 317 317 317 316 316 316 316 315 315 315 315 315 315 314 314 314 314 313 314 313 313 313 313 314 316 317 316 315 318 320 323 324 323 327 329 329 330 330 330 331 330 329 329 329 329 329 328 327 327 327 327 326 325 325 325 324 323 322 321 320 321 320 318
318 318 318 320 319 319 319 317 317 317 316 316 317 318 318 318 318 318 318 318 317 318 318 318 318 318 319 319 319 319 318 318 318 318 317 317 317 317 317 317 316 316 316 316 315 315 314 315 314 314 314 313 313 313 313 312 313 313 313 316 316 314 315 316 321 326 328 328 330 329 327 326 327 330 332 329 328 329 329 328 327 327 327 327 327 326 326 326 325 324 323 322 321 321 321 320 317
319 318 319 320 319 319 319 317 317 317 317 316 317 318 319 318 318 318 318 318 318 318 317 318 318 319 319 319 319 319 319 318 318 318 318 318 318 317 317 317 317 317 317 316 315 315 315 314 314 314 314 314 313 313 313 312 312 313 313 313 315 315 314 315 317 323 328 329 330 331 327 324 325 330 332 328 328 330 330 329 329 328 327 327 327 326 326 326 325 324 323 321 321 321 321 319 317
320 319 319 320 320 319 318 318 317 317 317 317 317 317 318 318 317 318 318 318 318 318 318 318 318 319 319 319 319 319 319 318 318 318 318 319 318 318 318 318 317 317 317 317 316 316 315 315 314 314 314 314 313 313 312 313 312 313 313 313 314 315 314 314 314 318 324 325 327 331 330 327 326 329 331 327 327 331 331 330 330 329 328 327 327 326 326 326 325 324 323 321 321 321 320 319 318
320 320 318 319 320 318 318 318 317 317 317 317 318 317 317 318 317 317 318 318 318 318 318 318 319 319 319 319 319 319 319 319 319 319 319 319 319 319 318 317 317 317 317 317 317 316 315 315 315 314 314 314 314 313 313 313 312 313 313 313 314 314 314 313 314 315 318 321 324 327 329 327 325 326 328 327 326 329 331 330 329 329 328 327 327 326 326 326 325 324 323 322 321 320 319 318 317
317 319 319 319 319 318 317 317 316 316 317 317 317 317 317 317 317 317 318 318 318 318 318 318 318 318 318 318 318 318 318 319 318 319 319 319 319 319 319 318 318 317 318 318 317 317 316 316 315 315 315 314 314 313 313 313 313 313 313 313 313 313 313 312 313 313 313 316 318 320 323 324 322 320 323 326 325 328 331 329 327 329 327 325 325 326 326 325 325 324 322 321 321 319 317 317 317
316 318 319 319 318 318 317 317 316 315 317 317 317 317 316 317 317 317 317 318 318 318 318 318 318 319 319 318 318 317 317 317 317 318 319 319 318 318 319 319 319 318 318 319 318 318 318 316 316 316 315 315 314 313 314 313 313 313 313 313 313 313 313 312 313 313 312 313 313 314 316 320 322 320 322 326 327 328 330 327 325 327 328 326 325 326 326 326 326 324 322 321 321 320 318 317 317
316 317 318 319 319 318 317 317 316 315 317 318 317 317 316 317 318 317 317 317 317 317 317 318 318 318 319 319 318 318 318 317 316 317 318 318 318 318 318 318 318 318 318 318 319 318 318 317 317 317 316 315 315 314 314 314 314 314 313 313 313 313 313 312 312 312 312 312 312 312 312 316 320 321 323 326 327 329 329 326 324 326 328 327 325 325 326 326 326 324 322 321 320 319 319 318 317
317 318 319 320 321 319 317 317 316 315 316 318 317 317 316 316 317 316 316 317 317 317 317 317 318 318 318 319 319 319 318 318 318 318 318 318 318 317 317 317 317 317 317 317 317 317 318 318 318 317 317 316 316 315 315 314 314 314 313 313 313 313 313 312 312 312 312 312 312 311 312 314 316 319 323 325 328 331 329 325 324 326 329 327 325 325 326 326 326 325 323 322 320 318 318 317 317
319 320 318 320 323 320 317 316 316 316 316 316 317 318 316 316 318 317 315 316 316 316 317 317 318 318 318 319 319 319 319 318 318 319 319 319 319 319 318 317 317 316 317 316 316 317 317 318 318 317 317 317 316 316 315 315 314 314 313 313 312 312 312 312 312 311 311 312 312 311 312 313 314 319 324 327 330 331 329 325 323 326 329 327 325 325 325 326 326 326 323 322 321 319 318 317 317
320 322 320 320 321 321 319 317 317 317 317 318 320 321 322 321 320 320 319 318 317 317 318 318 318 318 319 319 318 318 319 319 319 319 319 320 320 320 319 318 318 317 316 317 316 316 316 317 317 317 317 317 317 316 316 315 315 314 313 313 312 312 312 312 312 312 311 312 312 312 312 313 314 319 325 329 330 329 327 325 322 325 328 326 326 326 325 326 326 325 323 322 322 321 320 319 317
319 323 323 321 320 321 321 321 320 318 318 321 321 322 327 324 318 319 319 319 320 319 319 319 319 319 318 319 318 318 318 318 318 319 319 320 320 320 319 318 317 316 316 316 316 316 316 316 316 316 316 316 316 316 316 315 315 314 314 313 313 313 313 313 313 312 312 312 313 312 312 314 315 319 325 329 329 328 327 325 323 326 326 325 326 327 326 326 325 324 323 322 321 321 321 320 318
316 322 325 323 322 324 321 320 321 319 319 322 320 320 323 319 313 316 316 317 318 318 318 319 318 320 319 318 318 318 318 318 318 318 318 319 320 319 318 317 316 316 316 316 316 316 316 316 316 316 316 316 316 316 315 315 315 315 314 313 313 313 312 313 312 312 311 311 312 312 312 316 317 320 325 327 326 326 325 324 325 325 324 324 325 326 325 325 325 324 323 323 322 322 321 321 320
319 323 325 323 323 324 321 320 321 321 322 323 321 319 321 319 315 316 318 317 317 317 318 318 317 319 319 319 320 319 320 320 320 320 319 319 318 318 317 317 316 316 316 316 316 317 316 316 317 316 316 315 316 315 315 315 315 315 314 313 313 312 312 312 312 311 311 311 312 312 313 317 318 319 321 322 321 322 323 324 325 325 324 324 324 324 324 324 323 323 323 323 322 321 321 321 320
323 324 323 323 324 324 322 321 321 322 323 324 323 321 322 323 322 320 321 319 318 318 319 319 317 318 320 320 321 320 320 320 319 319 318 317 317 316 316 316 316 317 317 318 318 318 317 317 317 316 316 316 316 316 315 315 314 314 314 313 313 312 312 311 311 311 310 311 311 312 314 316 318 318 318 319 321 324 326 326 325 324 324 324 323 322 321 322 323 323 323 323 322 321 321 321 319
321 321 323 323 324 323 322 322 322 322 321 322 326 324 319 320 322 320 320 321 321 321 320 319 319 319 321 320 320 320 319 319 319 318 318 317 316 316 317 317 318 318 318 318 319 319 318 318 317 317 317 317 317 316 316 315 314 313 313 313 312 312 312 311 311 311 310 310 311 312 313 316 318 319 319 320 324 326 325 325 324 324 324 323 321 321 320 321 323 323 323 322 322 321 321 320 319
319 322 324 322 322 322 321 322 321 321 321 322 326 325 318 318 321 319 319 322 323 321 319 320 322 321 319 319 318 319 319 319 319 319 319 319 318 318 318 318 319 318 318 318 318 318 318 318 318 317 317 317 316 316 316 315 315 314 313 313 312 311 311 311 311 310 310 310 311 312 313 316 319 320 320 321 323 324 322 321 321 323 324 322 321 321 322 322 323 323 323 322 322 321 320 320 318
320 322 322 320 321 322 320 322 322 320 320 321 324 325 320 319 320 318 318 320 320 320 320 322 324 321 318 317 318 317 318 317 317 317 318 319 319 319 319 319 319 318 318 318 318 318 318 318 318 318 317 317 317 316 316 316 315 314 314 313 312 311 311 311 310 310 310 310 311 312 312 315 319 320 320 321 321 322 321 319 320 322 323 322 322 322 323 323 322 322 322 322 320 319 320 319 318
322 322 320 319 319 321 322 324 326 323 319 319 321 322 321 319 317 318 319 319 319 319 319 320 320 319 318 318 318 318 318 318 317 317 317 317 318 318 319 319 319 318 318 318 318 318 318 318 318 318 317 317 317 317 316 316 315 315 314 313 312 311 311 311 310 310 310 310 310 311 311 314 318 319 320 320 321 321 321 321 321 322 322 321 321 322 322 321 321 320 321 321 319 318 319 318 317
321 320 321 321 318 319 321 322 324 324 320 320 320 319 321 319 316 318 319 317 318 318 317 318 318 317 318 318 317 319 319 319 318 317 316 316 317 317 318 318 318 318 318 318 318 318 318 318 318 317 317 317 317 317 317 316 316 315 314 313 313 312 311 311 310 310 310 310 310 310 311 313 316 318 320 320 320 320 321 323 323 322 321 321 321 321 321 320 319 319 319 320 319 318 318 317 316
318 318 320 321 318 317 318 318 321 324 322 319 318 319 323 322 319 319 317 316 317 317 317 318 317 317 317 316 316 317 317 317 317 317 316 316 316 316 316 317 317 317 317 318 318 318 318 318 318 317 317 317 317 317 317 317 316 315 314 313 313 312 312 311 311 311 310 310 309 309 311 313 316 319 321 320 320 319 321 323 322 321 320 321 320 320 320 319 318 318 319 320 319 318 317 316 316
318 318 319 321 320 316 316 318 320 321 320 320 321 323 323 321 319 317 316 316 316 315 316 317 317 316 316 317 317 316 316 317 317 317 317 316 316 317 316 316 316 317 317 318 318 318 318 318 318 318 317 317 317 317 317 317 316 315 314 313 312 312 312 311 311 311 310 309 309 309 310 312 315 319 320 320 319 319 321 322 321 320 320 320 320 319 318 317 317 316 317 318 319 317 316 316 316
319 319 320 321 321 317 317 319 318 317 317 319 322 321 319 316 316 316 316 316 315 314 315 315 315 316 316 317 317 315 316 317 318 318 317 317 317 317 317 317 317 318 318 318 318 318 318 318 318 318 317 317 317 317 317 317 316 316 315 314 313 312 312 311 311 311 310 309 309 308 310 312 313 316 319 320 320 320 320 320 320 319 319 320 320 317 316 315 315 314 315 317 317 316 315 315 315
322 322 320 320 321 319 318 318 319 319 317 317 317 316 315 313 314 317 318 316 315 316 316 315 315 316 316 316 316 316 317 317 318 318 317 317 317 317 318 318 318 318 318 318 318 318 318 318 317 317 317 317 317 317 317 317 316 316 316 315 314 313 312 312 311 311 310 309 309 308 309 311 313 316 319 319 319 319 318 319 319 319 320 319 318 316 315 315 315 315 315 316 317 315 315 314 314
319 320 318 319 321 321 319 317 316 317 316 316 317 316 315 314 313 315 316 317 317 318 318 317 316 317 316 317 317 318 318 319 318 318 317 317 317 317 317 318 318 319 319 318 318 318 318 318 318 318 318 318 317 318 318 317 317 316 316 316 315 314 313 312 312 311 310 309 309 308 309 310 312 316 318 318 318 317 317 317 318 319 320 318 316 315 314 313 314 315 315 315 316 315 314 313 313
317 317 318 320 321 320 321 318 315 316 316 315 316 316 316 315 314 314 316 317 317 316 318 319 317 317 317 317 318 319 319 319 317 317 317 317 317 318 317 318 318 318 319 318 318 318 318 318 318 318 318 318 318 318 318 318 318 317 316 316 316 315 313 312 312 311 310 310 309 309 309 309 311 314 316 316 316 316 317 318 319 319 319 317 316 315 314 313 314 315 315 314 314 314 313 311 310
317 318 319 320 319 319 322 320 317 317 316 315 315 315 315 314 314 317 317 317 318 319 321 321 318 316 316 316 318 319 319 317 317 317 317 317 317 318 318 318 318 318 318 318 318 318 318 318 318 318 318 318 318 318 318 317 318 317 317 317 317 316 314 313 312 311 310 310 309 308 308 309 311 314 315 316 316 315 317 319 318 318 317 317 316 315 314 314 315 315 314 313 313 313 311 307 304
316 316 317 318 318 319 320 319 318 318 317 317 317 317 317 315 315 318 317 316 319 320 320 318 316 315 315 316 318 320 318 317 316 316 317 317 318 318 318 318 318 319 318 318 318 318 318 318 318 318 318 318 318 317 318 317 317 317 317 317 317 317 315 314 312 311 310 309 309 308 308 308 310 312 314 315 315 315 317 318 318 317 316 316 315 315 314 314 315 315 314 313 313 311 307 303 300
Wind_Speed
2 1 2 1 3 4 5 2 3 3 3 1 4 3 2 3 3 4 5 4 3 6 8 7 7 8 5 2 4 11 13 8 3 2 4 11 17 16 13 15 15 15 13 12 13 13 11 11 11 11 11 10 10 9 9 9 9 9 7 6 6 7 8 8 9 10 11 12 12 12 12 13 13 12 11 11 11 13 13 14 15 14 15 16 14 12 11 11 12 12 11 10 11 11 11 12 11
3 1 1 2 4 4 4 4 2 3 3 3 4 4 4 2 2 5 6 6 6 5 6 7 5 4 4 4 2 7 13 12 9 12 15 19 20 17 16 15 15 16 13 13 13 13 11 10 11 11 11 10 10 9 9 9 8 8 6 6 6 7 7 7 8 9 10 11 12 12 12 12 12 12 11 10 11 13 14 15 15 15 17 19 16 11 8 10 11 11 11 11 12 13 14 14 14
3 2 1 2 5 5 6 3 3 4 2 5 3 3 4 4 4 8 9 10 10 8 7 5 4 3 4 5 5 5 7 10 13 19 19 19 19 18 19 15 14 15 12 13 13 13 12 10 11 11 12 11 10 10 9 9 8 7 6 5 6 6 7 7 8 9 9 10 11 12 12 12 12 11 11 10 10 13 14 15 15 16 18 18 15 10 8 10 11 11 12 14 15 16 16 17 17
3 2 3 2 4 5 4 2 3 3 3 4 3 3 4 6 8 9 11 12 11 8 6 4 4 3 3 4 6 6 9 9 10 16 17 14 15 18 21 18 15 15 13 12 12 12 11 11 11 10 11 11 10 10 9 9 7 7 5 5 5 6 6 7 8 9 9 10 11 12 12 12 11 11 10 10 9 12 14 16 17 16 16 14 12 9 8 11 12 14 15 16 16 17 18 18 19
3 2 4 3 3 3 2 2 2 3 4 2 4 3 4 8 8 9 10 12 10 7 5 3 3 3 2 4 5 4 8 9 9 12 16 13 13 17 20 19 16 15 14 12 12 11 11 11 10 10 10 10 9 9 10 9 8 6 5 5 5 5 6 7 8 8 9 10 11 12 12 12 11 10 10 10 9 11 13 15 16 15 14 12 10 8 9 12 14 16 17 17 17 18 19 19 19
4 2 4 5 6 5 2 3 1 5 4 4 5 3 6 9 10 11 11 12 9 6 5 3 2 1 4 4 4 5 7 8 11 12 15 14 13 16 20 19 16 14 14 12 11 11 11 12 11 11 11 10 9 8 9 9 9 7 6 5 5 5 5 7 7 8 8 9 10 11 11 11 11 10 9 9 9 10 13 15 16 14 14 13 13 13 11 12 16 18 18 17 18 18 19 19 19
5 3 3 4 6 4 3 3 2 5 4 5 5 4 7 10 13 13 10 9 5 5 5 3 1 1 3 5 4 6 7 8 13 14 15 17 16 17 21 19 15 14 14 12 11 11 12 12 12 12 11 11 9 8 7 8 9 8 7 6 5 5 6 7 6 7 8 8 9 10 10 10 11 10 9 9 9 11 12 13 14 13 14 16 16 15 11 13 18 18 18 17 18 18 19 20 19
6 3 2 3 2 2 3 1 5 4 2 5 6 5 9 11 13 11 7 7 4 5 5 2 0 1 2 6 4 4 8 9 12 15 16 18 18 20 22 17 14 14 13 13 12 11 12 13 12 12 12 11 10 8 7 8 9 9 8 6 5 6 7 6 6 6 7 7 8 9 9 9 10 10 9 9 9 10 11 11 14 14 15 15 14 13 11 14 17 17 17 17 17 18 19 20 19
6 3 2 2 2 3 3 2 5 4 3 4 5 7 12 12 12 10 6 7 7 6 7 4 1 0 2 7 7 4 7 9 10 13 16 16 17 21 21 15 13 13 13 13 12 12 13 13 13 12 12 11 10 9 8 8 9 9 8 6 5 6 7 5 5 6 6 6 7 8 9 9 9 9 9 9 9 9 10 11 13 15 15 14 13 12 12 14 16 16 17 16 17 18 18 19 19
4 5 3 1 3 4 3 3 5 4 5 5 6 7 10 10 10 10 7 8 8 7 8 5 3 1 1 7 10 3 4 7 8 13 15 15 17 19 18 14 13 13 13 13 12 13 14 14 13 12 12 11 10 9 8 9 10 10 8 6 6 6 6 5 4 5 5 6 7 8 8 8 8 9 9 8 8 8 9 10 11 13 13 12 12 13 14 15 16 16 16 16 17 17 18 18 19
4 6 3 2 3 4 1 4 5 4 5 5 7 9 8 9 8 8 8 9 8 7 8 4 3 2 2 8 11 5 4 5 8 13 14 14 18 18 17 15 14 13 13 12 11 12 14 14 13 12 12 10 10 9 9 8 9 10 8 7 7 7 6 5 3 4 5 5 6 7 8 8 8 9 9 8 8 7 7 8 9 10 11 11 12 13 14 14 15 15 16 17 17 18 18 18 18
3 4 3 2 4 2 3 3 5 5 6 4 5 8 8 8 6 5 6 7 8 7 7 5 1 2 3 4 8 8 6 7 9 13 15 14 17 17 17 18 16 13 12 12 11 11 13 14 14 13 12 11 10 10 9 8 9 9 9 8 7 7 6 5 4 4 4 5 5 6 7 8 8 8 9 8 8 8 7 8 9 11 11 12 13 13 13 14 14 15 16 17 17 17 17 17 17
4 3 3 2 4 2 3 3 4 4 4 5 7 9 10 9 7 6 6 6 8 6 7 7 2 1 1 6 8 9 8 10 11 13 15 14 16 16 15 16 16 14 12 12 12 11 12 13 14 13 12 11 10 10 10 9 9 9 9 8 7 6 6 5 4 3 4 4 5 5 6 7 7 8 8 8 8 8 8 9 10 11 12 13 13 13 14 14 15 15 16 16 16 15 15 16 16
4 4 1 2 2 2 2 2 1 1 1 5 10 12 10 8 7 6 7 5 5 6 9 8 3 1 1 6 8 10 12 12 11 13 16 15 17 18 15 15 16 14 12 12 12 12 12 13 14 14 14 12 11 11 10 10 10 9 9 9 8 7 6 5 4 3 4 4 4 4 5 5 6 6 7 7 7 8 9 10 10 11 12 13 13 14 14 14 14 14 14 14 14 14 14 14 14
4 5 2 1 2 1 1 1 1 1 2 4 10 15 10 6 7 5 3 3 6 8 10 6 4 2 2 3 7 12 14 13 11 13 17 18 19 21 20 19 19 17 15 14 14 13 13 14 14 14 15 13 12 12 12 12 11 10 10 10 10 8 8 7 5 4 3 3 2 3 3 4 4 5 6 6 6 7 8 9 10 11 12 13 14 14 14 13 13 13 13 13 13 13 13 13 13
4 3 1 2 2 1 1 2 1 2 2 5 10 14 9 5 7 5 1 4 7 7 7 4 4 3 2 6 10 12 12 12 11 13 16 18 19 22 22 21 21 21 18 17 17 15 14 14 14 14 15 15 13 13 13 12 12 11 11 11 11 10 9 8 7 5 4 3 2 2 2 3 3 3 4 5 5 6 7 8 9 10 11 12 13 13 13 12 12 12 12 12 12 12 12 12 12
4 1 0 1 3 2 2 3 2 3 3 6 12 14 8 5 7 5 3 4 5 5 5 4 5 6 4 4 10 10 9 10 11 13 15 16 18 20 22 23 24 23 21 21 20 18 17 17 16 14 15 16 14 15 14 13 13 13 13 13 12 12 11 10 9 7 6 5 3 2 2 2 2 3 4 4 5 5 6 7 8 9 10 11 11 11 11 11 11 11 12 11 11 11 11 12 12
4 0 1 3 4 2 2 3 3 5 6 6 11 13 8 6 8 6 4 4 5 4 5 6 6 7 8 5 6 7 6 9 12 13 14 15 17 19 21 24 25 25 24 23 22 22 21 20 19 16 16 17 15 15 15 14 15 14 14 14 14 13 12 12 11 9 8 6 5 3 2 3 2 3 4 4 4 5 6 7 8 8 9 10 10 10 10 10 10 11 11 11 10 10 11 11 12
3 1 3 4 1 3 6 8 8 6 5 8 11 11 7 8 11 9 5 6 9 6 6 9 8 8 11 10 9 7 7 10 13 14 14 15 16 16 18 22 24 25 25 25 24 23 22 21 22 20 18 18 16 15 15 15 15 15 16 15 15 14 14 14 13 11 10 8 7 5 4 4 4 4 5 5 5 5 6 7 7 8 8 8 9 9 8 9 9 10 10 10 10 10 10 10 11
3 1 2 2 1 5 11 13 10 7 4 8 10 8 4 8 11 9 5 6 10 9 9 12 12 13 13 13 13 11 9 10 13 15 16 16 16 15 16 18 20 22 23 25 25 24 23 22 23 23 21 19 18 17 15 14 14 15 16 16 15 15 15 15 14 13 11 9 8 6 6 7 5 4 5 6 6 6 6 7 8 8 8 8 8 8 7 8 8 8 9 9 10 10 9 9 9
2 1 1 2 5 5 9 11 8 6 5 6 10 6 3 6 8 8 6 4 6 9 11 13 15 18 16 15 14 14 13 11 12 15 16 17 17 17 17 16 17 18 19 21 23 24 23 23 24 24 23 21 21 20 17 16 14 15 16 16 15 15 16 16 15 15 13 11 10 8 8 9 6 5 6 8 8 7 7 8 9 8 8 8 8 8 7 7 7 7 7 8 8 8 8 8 8
2 2 3 5 5 4 5 5 6 6 5 6 9 4 3 7 6 7 7 4 2 3 5 8 10 14 16 14 13 13 14 13 13 14 15 17 18 19 19 18 18 18 19 19 20 21 21 22 22 23 23 22 22 22 22 20 17 16 16 16 16 16 17 17 16 16 15 13 12 11 12 12 10 8 9 8 8 9 9 9 9 9 9 9 9 8 8 8 7 7 6 6 6 6 6 7 6
2 1 6 7 5 5 3 2 5 5 4 4 5 2 3 5 4 8 11 10 4 3 2 2 2 6 9 10 9 11 12 13 14 14 14 16 17 20 21 21 21 20 20 20 19 20 20 20 20 22 23 23 23 23 23 23 21 18 16 16 17 17 18 18 18 18 17 15 14 15 15 15 13 12 12 10 10 10 11 11 10 10 10 9 9 9 9 9 8 6 5 5 4 4 5 6 6
3 1 5 5 6 6 2 2 4 4 3 2 3 2 2 3 3 5 11 15 11 7 9 7 3 3 6 7 7 8 9 11 13 14 14 15 16 18 20 21 21 21 22 22 21 21 22 21 20 21 23 25 25 24 23 23 23 22 19 17 17 18 18 19 19 19 18 17 16 17 17 17 16 14 14 13 12 12 13 12 12 11 11 11 11 11 10 9 7 6 6 5 4 4 5 6 7
5 1 7 4 6 6 3 4 3 3 1 1 1 2 5 5 3 4 11 16 14 13 14 13 10 7 7 9 9 9 10 10 11 13 15 16 16 18 21 22 21 22 23 23 23 23 23 22 21 21 21 23 25 25 24 24 24 25 25 22 20 19 19 19 19 20 20 18 18 18 19 19 18 16 15 14 13 13 14 15 14 13 12 12 12 12 11 9 7 7 6 6 4 4 5 6 7
3 5 9 7 7 6 5 5 4 3 1 1 2 5 6 5 4 7 14 18 15 13 14 15 14 13 12 13 14 14 14 13 12 13 14 15 17 19 21 22 23 24 25 24 25 25 25 23 23 22 21 21 23 24 24 25 25 25 27 27 24 22 21 20 19 21 21 20 20 20 20 21 20 18 16 15 14 14 14 16 15 15 15 15 14 14 12 10 9 8 7 6 5 4 4 5 7
3 8 9 8 8 6 5 5 5 4 2 1 2 4 4 5 2 5 8 10 12 14 14 15 15 15 15 16 17 17 17 17 15 14 15 16 19 20 21 21 23 26 26 25 25 26 27 26 26 24 22 21 22 24 24 23 23 24 26 28 28 25 24 23 22 22 22 22 22 21 21 22 21 20 18 16 16 15 15 15 15 16 17 17 17 16 14 12 11 9 9 8 7 5 4 4 7
5 9 9 7 6 5 4 5 6 4 2 2 2 6 3 4 2 11 11 5 7 14 15 14 16 16 16 16 17 18 19 18 18 18 19 19 20 20 21 21 21 23 25 25 24 26 27 27 26 25 24 23 24 26 26 24 22 23 25 27 28 27 27 26 25 24 23 23 24 24 22 23 23 23 21 19 18 17 17 17 16 15 18 19 18 18 17 15 13 12 11 10 8 7 7 6 6
5 6 4 5 5 4 7 6 6 5 2 2 1 5 6 5 10 21 18 12 9 10 12 11 13 14 13 13 16 18 19 19 20 22 22 21 21 21 22 21 20 22 23 23 24 25 27 27 27 26 25 25 25 26 28 27 24 23 25 26 27 29 30 30 28 26 25 24 25 26 24 23 24 26 24 22 20 20 19 18 17 15 17 20 19 20 20 18 16 15 13 11 10 10 10 9 6
4 4 1 4 3 3 9 9 6 5 3 3 1 2 6 6 17 23 14 15 14 10 12 11 11 12 11 12 14 17 19 20 21 22 22 22 22 22 22 22 22 23 23 23 25 25 26 27 27 27 26 26 27 27 28 28 26 26 26 26 28 29 31 31 30 29 28 27 26 27 27 24 23 26 26 25 23 22 21 20 19 17 18 19 20 21 21 20 19 18 15 14 12 11 12 11 7
2 2 1 2 2 2 6 8 8 5 3 5 2 1 7 4 8 14 11 14 14 13 14 13 13 14 13 14 15 17 19 20 21 22 22 22 22 22 22 22 23 24 24 25 25 25 26 27 28 28 27 27 28 28 28 28 27 27 28 29 30 30 30 30 31 31 29 29 28 28 28 26 25 25 26 27 26 25 24 23 22 20 19 20 21 22 23 23 23 20 17 16 14 13 14 12 8
1 2 2 3 2 1 2 4 7 4 2 7 4 2 8 6 3 10 12 12 11 11 13 12 13 13 13 14 14 17 19 20 21 21 23 23 23 23 23 23 23 24 25 25 25 26 27 28 28 28 28 28 28 28 28 27 27 28 29 30 32 32 31 29 30 33 32 31 31 32 32 30 28 27 27 27 28 28 27 24 23 21 21 21 22 23 24 25 25 22 19 19 17 15 16 13 8
2 2 2 3 3 3 2 1 2 3 3 5 6 3 5 3 5 9 9 9 9 9 11 11 12 13 13 13 15 17 18 19 21 21 22 22 23 23 24 23 23 23 24 25 25 26 27 28 28 28 28 28 28 28 28 27 28 28 29 29 31 34 33 30 29 32 36 35 34 35 35 32 29 29 29 28 29 31 29 25 24 22 22 22 23 25 25 26 28 26 23 22 19 17 17 14 10
3 3 3 2 3 3 2 1 1 3 2 3 5 5 6 7 5 7 6 7 9 10 12 13 13 13 13 13 15 17 19 21 23 23 22 21 21 21 22 22 21 22 22 23 24 25 27 28 28 27 28 28 29 29 28 28 28 29 29 28 30 33 34 33 31 31 36 38 37 36 37 34 31 31 31 29 29 32 31 27 25 23 22 24 25 26 26 27 29 28 25 24 21 19 17 15 11
2 4 4 3 2 3 2 1 2 4 1 3 5 6 9 11 12 14 15 13 14 14 15 17 17 18 18 18 19 20 21 23 25 25 23 22 21 20 21 21 20 20 19 20 21 23 26 27 28 28 28 28 30 30 29 29 29 30 30 30 31 33 35 34 33 32 33 36 39 39 39 37 34 33 33 32 31 33 32 29 25 24 24 25 26 28 28 29 30 30 28 26 23 21 18 15 12
2 1 1 2 2 2 1 3 1 1 1 4 7 7 9 11 11 14 18 18 18 18 18 20 22 23 23 23 24 25 26 28 28 26 25 25 25 23 22 21 20 20 20 20 21 22 24 26 28 29 29 29 30 31 31 31 31 32 32 33 34 35 36 35 34 33 33 35 38 40 41 39 36 33 34 34 33 32 32 30 27 26 27 27 27 28 29 29 31 33 32 29 25 23 21 18 15
3 3 2 2 2 1 3 4 1 2 1 5 7 8 10 11 10 11 16 17 16 16 17 20 22 22 24 24 27 29 30 31 30 27 27 28 28 27 26 25 25 25 25 25 24 24 24 25 28 29 29 30 31 31 32 32 32 33 33 35 36 36 36 36 34 34 33 34 36 38 40 40 37 34 34 36 34 33 32 31 28 27 29 29 27 27 28 28 32 35 34 30 27 25 23 21 18
3 2 3 3 1 0 3 3 1 1 2 4 6 8 10 9 9 11 14 13 14 17 17 20 23 23 24 25 29 32 31 30 28 27 28 28 29 29 29 29 29 29 29 28 28 27 26 27 28 28 29 30 31 31 32 33 32 32 33 33 34 34 35 36 35 34 33 33 33 34 36 37 36 35 36 36 34 34 34 31 28 29 32 30 27 27 28 29 32 35 36 32 29 27 24 22 20
3 1 1 2 2 1 3 3 0 1 1 4 6 7 10 10 9 12 15 15 19 23 23 24 24 23 24 26 30 31 28 26 25 26 27 28 29 29 29 30 29 30 29 29 29 28 29 29 29 29 29 30 31 32 33 33 32 32 32 32 32 33 34 35 35 34 34 33 32 32 33 34 34 35 36 35 35 36 36 31 27 30 34 31 27 29 30 31 33 35 37 34 31 29 26 23 21
2 2 1 2 2 1 1 1 1 3 4 4 6 6 10 10 9 12 20 26 28 26 24 24 24 22 24 27 30 30 26 24 23 24 26 26 27 28 29 28 27 27 27 28 29 29 31 31 31 31 30 31 31 32 33 33 33 32 32 33 33 34 34 34 34 35 35 33 32 33 33 34 34 36 36 34 36 38 37 32 28 30 33 29 26 29 31 32 35 38 38 36 33 33 29 25 24
4 5 4 4 2 3 2 1 2 4 3 2 5 5 7 7 5 7 11 18 21 21 19 20 21 22 24 28 30 29 26 24 22 22 24 25 26 27 26 24 23 22 22 22 23 25 28 29 30 31 31 32 32 33 34 34 34 33 34 35 36 36 36 36 36 35 35 33 33 33 33 35 35 35 35 34 36 35 34 32 29 30 30 28 27 29 29 30 35 40 41 39 36 35 31 26 26
4 5 4 4 2 4 5 3 3 3 2 1 2 3 5 5 6 7 6 4 8 12 13 16 21 21 23 27 29 29 27 25 24 23 22 23 24 23 23 23 22 21 20 18 18 19 22 24 27 29 31 33 34 35 35 35 35 35 35 36 37 37 37 36 35 34 34 34 33 32 33 35 35 36 36 36 35 33 33 31 30 31 30 28 28 28 27 27 30 36 39 38 35 33 30 27 26
3 3 3 2 2 6 4 3 2 1 3 3 2 0 5 7 10 10 8 7 9 9 9 15 21 20 22 26 25 24 22 20 20 20 21 22 24 23 24 24 22 20 18 17 18 18 19 21 23 27 30 32 34 35 36 36 36 36 37 37 37 37 36 35 33 32 33 33 32 32 32 34 35 36 38 38 36 35 35 33 32 31 30 29 28 27 28 28 28 30 34 37 35 32 32 31 29
2 4 4 3 5 5 3 2 0 2 3 3 3 3 4 6 10 10 8 10 10 9 9 14 19 20 22 22 19 15 13 12 13 15 16 19 22 23 23 21 17 16 16 16 17 17 19 21 23 26 29 31 33 34 35 36 36 37 37 36 37 37 35 33 31 30 31 32 32 33 33 33 33 35 37 37 36 35 34 33 33 31 30 30 29 29 30 30 29 29 32 37 38 36 35 33 31
2 4 2 3 5 4 3 2 1 1 4 3 3 3 3 5 7 8 7 9 8 8 10 11 16 20 17 14 12 10 10 10 11 11 11 13 16 18 18 15 12 12 12 12 13 14 17 21 23 26 28 29 30 30 31 33 34 35 35 36 36 35 34 32 31 30 30 32 33 33 33 32 32 33 35 34 32 32 31 31 32 31 32 32 30 30 30 30 30 30 32 36 40 40 38 35 34
4 4 3 5 5 4 3 2 1 2 2 4 5 5 3 5 5 5 5 7 7 8 9 6 5 8 9 9 10 10 8 7 6 5 6 8 10 12 11 9 7 7 7 7 8 10 13 17 20 23 25 27 28 29 29 30 31 33 33 34 34 33 32 31 31 31 31 33 33 34 33 33 33 33 33 33 33 32 31 31 31 32 33 33 30 29 31 33 34 33 32 35 40 42 40 38 35
6 4 4 4 3 4 2 1 3 2 3 4 6 10 5 4 4 5 4 4 4 5 5 1 6 9 9 7 7 6 5 4 3 2 3 4 6 7 7 6 6 6 7 8 9 10 11 13 16 19 22 25 27 28 28 28 29 29 30 31 31 31 30 30 32 32 33 34 34 34 34 34 35 34 34 34 35 34 32 31 32 33 34 33 30 29 31 35 38 35 33 36 41 42 39 36 33
4 2 3 4 2 4 3 2 3 0 4 2 2 4 5 6 4 1 2 2 2 1 1 4 7 9 8 5 4 4 4 5 5 5 5 6 6 8 9 9 9 9 9 11 13 13 13 13 14 17 20 23 24 26 27 27 27 27 27 29 29 29 29 30 32 33 33 34 35 35 35 35 36 36 35 35 35 34 33 31 31 34 35 33 31 29 29 31 33 34 34 38 43 42 37 34 33
1 2 5 4 1 1 1 1 1 3 5 3 4 3 2 8 6 3 6 6 2 2 1 3 3 4 4 3 4 7 10 11 11 10 9 9 9 11 12 13 12 11 11 13 16 16 16 16 16 17 19 20 21 23 23 24 24 24 25 27 28 27 28 30 32 33 33 33 34 35 35 35 36 36 36 35 34 33 32 33 34 35 34 31 29 28 27 26 26 28 31 36 40 39 35 33 35
4 5 6 5 3 2 3 4 2 3 4 3 4 2 3 6 5 5 7 7 6 4 4 4 6 7 6 6 9 13 15 15 14 13 12 11 12 14 15 16 16 14 14 16 17 17 17 18 18 18 18 19 20 20 21 21 21 21 23 25 27 27 28 30 32 32 33 33 33 33 33 34 34 33 33 33 33 32 32 35 35 33 31 29 29 29 28 26 25 26 28 32 36 37 34 33 35
7 5 5 5 5 4 4 3 3 3 1 3 3 1 3 3 3 4 4 4 6 9 9 8 9 9 9 11 14 17 18 17 16 14 13 12 14 16 18 20 20 18 17 17 18 17 17 17 17 17 17 18 18 19 19 18 18 19 21 23 24 26 27 29 31 32 32 32 32 32 32 32 32 31 30 30 30 31 32 34 33 30 28 29 30 29 27 26 26 27 29 32 36 38 36 35 36
5 2 3 5 4 2 1 2 3 2 1 2 2 3 4 4 7 10 8 8 9 11 10 7 10 12 11 14 18 17 16 16 15 13 12 12 14 16 18 18 19 18 17 18 17 16 16 15 15 15 15 16 16 17 17 17 17 18 20 21 22 24 26 28 30 31 32 32 32 31 31 31 30 30 29 28 29 29 31 32 31 28 28 30 29 27 27 27 28 30 32 37 40 40 38 37 38
3 3 4 4 2 3 2 2 1 4 2 4 3 5 6 3 9 10 10 12 11 11 10 10 17 19 13 15 19 21 20 17 15 16 15 14 12 13 14 14 15 16 16 16 15 15 13 12 13 13 13 14 14 14 15 15 15 16 18 19 20 22 25 27 28 29 30 31 31 31 31 30 30 30 30 30 30 30 30 31 30 29 30 31 30 28 28 28 30 32 34 39 41 39 38 37 38
4 4 4 1 3 2 2 1 2 1 5 4 3 7 6 3 7 4 1 4 4 6 9 11 16 16 13 15 19 19 19 17 15 16 14 11 10 12 13 14 15 16 15 15 14 13 12 11 11 10 9 9 10 11 12 13 12 13 16 18 19 20 23 25 27 27 29 30 31 31 30 30 30 31 32 32 31 31 32 32 31 32 33 32 30 29 27 28 33 36 36 38 38 37 37 37 38
4 2 2 2 1 2 2 3 2 3 5 4 4 8 6 6 10 5 4 5 4 6 8 8 10 11 11 11 12 12 14 14 14 13 12 11 12 14 16 17 17 17 16 14 13 12 11 10 8 6 6 7 8 10 11 12 12 12 14 16 18 19 21 23 25 26 28 30 31 31 30 30 30 32 33 33 32 32 32 32 32 34 35 32 31 30 26 27 34 39 39 39 39 38 36 35 36
4 4 2 2 2 3 3 3 3 3 4 5 6 6 6 9 9 5 6 8 8 8 7 5 5 5 2 4 7 11 13 12 13 12 13 15 16 17 18 19 18 16 15 14 13 11 9 8 7 7 8 8 9 10 11 13 14 14 13 15 17 19 19 21 23 25 27 29 30 30 31 30 31 32 34 34 33 31 31 31 31 34 35 33 31 29 26 27 32 36 37 37 38 37 34 33 32
1 1 2 2 1 2 1 2 2 3 4 4 5 6 8 8 4 4 7 5 4 2 1 1 4 6 10 11 10 11 11 11 12 13 14 15 16 17 19 21 19 17 17 15 13 12 10 10 10 10 10 10 11 12 12 13 14 15 15 15 17 19 19 20 21 24 26 28 30 31 31 31 32 35 36 35 34 32 31 30 30 32 32 32 30 27 26 29 32 34 34 35 35 34 33 32 31
8 6 7 8 5 4 2 4 3 3 3 3 4 5 11 8 3 3 4 2 4 5 6 4 8 13 17 15 11 9 8 11 13 15 16 15 15 17 20 23 21 19 19 16 15 14 13 13 12 12 12 12 12 13 13 14 14 16 16 15 17 19 20 21 21 23 25 27 30 31 31 31 33 35 35 34 33 31 30 30 30 31 31 30 29 28 28 29 31 32 33 34 34 34 33 31 31
Wind_Direction
220 321 355 303 239 258 253 238 296 232 202 115 99 105 78 75 113 121 109 117 106 55 47 52 39 28 34 3 39 69 52 40 61 47 125 141 148 148 151 161 160 164 162 153 155 151 147 139 136 136 133 133 132 131 126 120 117 113 110 103 89 76 65 60 58 60 60 56 55 58 61 59 59 60 67 80 91 94 91 92 93 93 97 98 95 104 121 121 124 124 112 105 100 97 95 93 95
211 304 330 281 243 255 265 198 229 259 181 94 73 88 107 127 142 102 91 84 82 83 73 64 53 49 37 3 24 66 53 53 84 105 124 146 152 153 153 155 156 161 162 156 159 155 153 148 143 139 135 134 134 134 130 129 125 122 120 111 92 76 67 59 58 60 61 60 59 59 60 60 60 59 62 73 86 91 90 90 92 91 93 91 87 90 110 119 119 114 105 100 98 98 96 95 95
203 286 234 255 264 258 283 235 226 273 136 97 70 106 136 132 100 77 77 83 91 96 85 78 78 53 347 343 22 56 74 67 93 115 127 151 162 162 150 148 158 159 161 157 159 160 156 153 151 143 139 139 143 146 141 139 137 135 131 116 97 81 73 64 63 60 59 61 62 63 60 60 60 59 62 65 77 88 90 91 92 91 94 98 101 106 105 108 112 108 103 101 100 100 99 98 98
204 255 206 245 302 261 269 243 236 307 57 97 96 136 151 108 90 79 83 88 94 93 80 85 85 62 344 348 13 55 100 86 102 124 131 155 174 165 148 147 158 156 157 157 161 162 156 156 156 148 141 139 147 155 153 151 147 144 134 119 100 86 79 71 69 64 60 62 64 64 59 58 59 58 61 63 73 86 91 95 99 98 102 108 114 122 112 106 111 110 105 104 103 103 103 103 103
201 233 219 226 295 268 272 274 270 33 24 52 108 146 127 97 95 94 91 90 90 86 83 106 92 92 65 24 9 59 103 99 111 129 133 155 185 164 148 151 153 156 158 158 167 163 156 159 158 154 147 141 144 154 164 164 159 151 143 128 105 92 84 77 74 69 65 62 61 60 56 54 56 58 59 61 71 87 91 96 102 105 111 114 115 116 105 102 107 109 108 106 106 105 106 106 106
186 209 236 248 268 286 306 276 356 79 6 6 103 115 96 99 106 106 101 93 85 90 98 97 49 64 99 79 64 97 117 120 124 140 144 155 186 168 154 154 148 155 158 161 174 169 163 165 165 162 156 150 147 150 164 172 168 157 154 143 118 106 90 83 79 76 71 64 57 53 53 51 52 56 61 62 66 83 93 97 101 103 104 100 92 88 89 98 106 108 108 107 106 105 105 105 105
182 193 226 266 270 267 262 258 55 81 352 7 88 103 91 103 114 116 116 107 87 106 113 81 43 320 109 121 105 112 138 149 149 159 163 165 179 171 157 151 148 155 157 168 179 174 171 171 171 169 162 155 153 153 159 171 168 160 160 153 135 122 98 87 81 80 77 68 55 47 49 50 52 55 63 68 68 83 93 98 101 101 98 96 92 94 101 105 107 107 107 106 105 104 103 103 103
184 210 230 271 280 222 255 311 61 70 26 26 49 78 104 116 124 131 132 129 133 134 143 126 42 295 110 116 100 137 163 174 182 177 177 177 174 163 154 147 151 157 162 179 182 179 179 176 175 172 167 159 157 158 159 166 165 163 163 160 149 127 104 92 81 79 79 70 56 46 46 49 52 55 63 72 75 85 90 93 101 106 106 108 111 120 126 112 107 107 106 106 103 103 101 100 99
184 244 271 258 289 251 258 84 87 83 105 88 57 77 110 130 136 136 126 120 137 134 139 158 188 273 93 100 97 136 182 193 207 191 185 185 175 159 150 146 155 162 172 184 184 184 183 179 178 175 174 166 160 160 160 162 163 166 166 169 162 128 110 103 86 80 83 74 61 53 50 50 52 56 64 76 82 84 87 94 105 112 113 118 129 134 128 114 109 109 107 105 102 101 99 98 96
200 245 281 310 275 255 243 95 95 95 99 106 112 114 120 141 145 140 136 118 134 124 116 142 158 258 332 111 119 141 197 195 205 199 192 185 176 157 145 150 162 170 178 186 187 188 186 183 182 180 181 174 166 164 162 161 162 167 173 174 160 134 120 118 97 83 87 81 73 64 56 57 58 59 67 79 88 88 89 96 106 118 122 125 128 124 117 113 111 110 108 104 101 99 98 97 95
226 227 250 322 263 261 262 93 103 110 104 102 116 132 136 147 149 146 138 114 125 118 117 161 166 226 256 119 130 165 192 185 193 196 190 181 173 158 152 161 169 177 182 190 192 187 188 187 186 184 186 183 175 171 167 165 167 170 176 173 158 145 134 133 112 91 93 92 85 71 62 64 66 64 70 80 87 91 90 90 95 111 122 120 116 114 112 111 110 109 105 101 100 99 98 96 94
219 210 191 292 269 315 16 68 102 111 126 139 124 141 150 149 153 151 137 119 135 133 136 168 141 187 229 109 137 175 175 179 192 190 187 183 177 168 166 167 168 179 188 196 198 191 192 193 190 189 191 189 184 182 176 171 174 174 172 169 162 155 148 148 127 101 98 100 94 77 69 68 69 67 71 79 86 90 88 86 89 98 108 109 110 112 110 107 104 102 100 98 99 98 98 96 95
222 226 169 230 272 11 12 23 97 131 154 158 140 150 156 155 166 157 150 139 145 149 145 146 116 215 198 99 138 171 168 185 194 184 184 187 183 173 167 169 167 178 193 199 202 200 199 199 196 196 197 195 192 191 187 182 183 177 173 172 169 168 164 160 141 120 110 110 105 88 81 77 73 72 74 81 87 91 90 90 94 100 106 108 111 110 105 101 98 97 95 95 96 96 96 96 96
241 306 257 219 270 13 12 20 105 196 134 121 132 150 159 164 177 160 156 150 126 123 133 145 162 214 161 110 145 167 166 193 200 180 183 186 185 175 170 177 172 180 197 200 205 207 204 206 204 203 203 202 199 198 196 192 192 187 182 180 178 182 183 177 164 148 127 117 111 97 89 88 82 77 80 83 89 94 94 97 101 105 108 109 110 105 102 100 97 94 93 93 94 94 95 96 98
227 333 325 291 317 349 50 99 339 5 86 111 135 151 155 161 171 158 148 113 103 122 133 161 208 180 7 77 149 175 181 203 200 180 186 188 190 184 183 185 177 185 195 197 206 208 208 211 210 208 208 208 205 205 204 199 200 197 193 191 190 191 193 190 184 177 152 133 119 111 101 101 100 90 90 90 95 100 100 103 107 108 110 111 110 107 105 103 99 96 94 93 93 93 95 97 99
195 341 312 309 304 236 176 166 89 37 112 136 147 153 148 148 161 155 124 92 111 140 143 163 200 175 52 94 145 183 201 212 199 187 194 194 197 195 194 190 184 191 193 196 205 204 207 210 211 211 209 211 211 211 208 206 208 202 199 200 199 198 200 200 197 200 184 164 173 154 124 123 131 120 113 107 108 111 111 110 112 114 115 116 116 114 112 108 106 102 99 97 96 96 97 100 104
184 338 336 250 249 213 174 167 138 145 128 132 157 161 150 148 164 174 175 143 132 148 151 162 194 204 212 142 162 194 212 215 205 197 200 200 201 201 200 195 190 195 197 200 203 203 207 208 209 209 208 210 212 215 213 213 214 208 204 204 205 206 206 207 208 211 204 187 194 197 158 163 180 158 139 131 128 126 127 123 122 124 124 126 125 123 120 116 114 110 106 104 102 101 102 105 110
172 119 197 236 235 239 171 108 76 135 139 146 167 173 170 152 169 184 178 189 189 163 168 193 211 215 226 220 195 208 218 217 211 209 210 206 206 204 202 199 198 200 201 204 203 203 208 210 210 208 207 207 210 215 215 216 217 213 208 206 208 211 210 212 214 215 215 208 204 209 198 200 208 205 184 158 154 147 145 142 137 137 137 138 136 134 130 126 123 119 116 114 113 111 112 115 119
190 184 203 243 220 21 28 60 54 54 122 154 166 189 194 155 165 175 178 195 191 191 191 195 206 217 226 226 224 219 211 215 212 216 219 216 217 212 205 204 206 206 208 211 210 209 211 211 210 208 207 205 207 212 214 215 215 215 213 209 210 214 214 214 216 219 222 218 215 214 210 218 216 217 208 177 174 173 164 160 155 152 151 151 149 147 142 137 133 130 128 125 125 124 125 126 129
218 241 196 265 25 46 40 61 69 46 72 141 152 192 201 140 153 168 197 202 184 198 200 188 193 209 224 223 224 220 208 213 214 218 223 224 227 224 218 214 215 215 216 218 218 218 218 216 213 211 210 207 206 209 212 214 214 215 215 212 212 216 216 216 218 220 222 220 220 216 216 231 224 203 208 198 192 192 187 178 171 169 165 165 165 162 158 152 148 144 141 138 137 136 136 134 136
178 219 169 346 354 44 47 58 79 70 62 102 130 168 199 139 147 167 195 221 198 209 209 204 203 207 218 218 217 218 216 213 212 219 224 227 229 230 230 227 227 226 225 224 223 224 224 223 221 217 215 213 210 211 213 213 214 214 215 215 215 218 220 218 218 220 221 218 218 213 214 234 236 215 218 217 207 202 204 195 186 185 182 178 176 176 173 167 165 162 157 153 150 148 146 144 144
159 170 99 44 4 47 50 54 88 83 78 106 125 145 161 146 159 185 199 232 201 153 175 201 207 204 209 210 207 211 218 220 218 221 223 227 230 232 233 231 231 231 231 231 229 231 230 230 229 224 222 220 216 216 218 215 213 213 216 218 217 220 222 220 219 220 219 215 215 209 208 225 235 233 234 230 220 211 211 210 202 197 196 193 188 186 182 178 179 183 179 169 160 157 156 152 151
207 153 88 57 33 79 61 48 111 98 81 109 128 132 132 147 204 214 215 226 206 97 92 175 159 177 192 201 204 209 219 225 227 228 227 228 229 231 233 233 233 232 235 237 234 235 236 236 236 231 228 227 225 222 222 218 215 214 215 219 220 220 222 223 221 218 217 216 216 211 210 222 231 234 239 238 231 223 216 217 215 207 205 204 199 195 191 188 189 195 193 180 172 164 163 162 160
216 194 99 71 61 92 88 81 143 139 83 71 100 112 192 207 232 217 217 225 227 251 272 273 257 176 183 204 213 222 230 232 233 234 233 233 233 232 232 233 235 235 235 238 238 235 237 239 239 238 233 231 232 229 227 223 218 217 216 217 220 222 224 225 222 218 219 218 215 214 215 224 231 234 239 241 237 230 223 219 221 217 212 211 208 203 202 201 197 199 203 204 205 185 174 177 178
232 161 115 113 84 95 102 99 141 155 128 304 137 234 248 228 244 255 237 232 232 244 255 261 256 235 222 231 236 236 237 238 236 233 231 231 233 231 229 228 230 234 236 237 237 237 239 239 238 241 238 235 234 231 230 229 224 218 216 217 217 221 225 225 224 222 222 220 218 218 219 223 231 234 238 243 241 236 230 221 219 220 219 218 217 215 214 211 206 209 218 222 219 202 186 191 195
218 121 118 128 108 111 112 108 124 137 180 256 220 247 233 216 261 271 256 249 240 234 240 249 252 243 236 241 247 250 249 246 241 236 233 229 228 229 229 226 224 231 237 237 235 237 241 241 240 241 241 239 234 230 230 234 234 223 217 218 217 219 223 223 224 225 225 228 227 226 225 227 233 235 238 242 239 238 235 228 222 218 221 224 223 227 227 218 214 216 221 227 227 225 209 205 210
127 110 112 119 118 131 129 126 128 124 129 143 254 277 220 184 239 262 256 253 229 218 224 234 244 247 246 247 250 254 254 253 251 244 237 230 228 229 230 229 226 229 236 238 237 238 240 242 242 242 240 237 234 234 234 236 238 231 222 220 220 220 221 221 222 225 229 232 232 231 229 230 235 236 238 240 237 235 235 235 232 221 221 227 228 231 232 224 222 221 217 225 232 238 237 222 215
129 118 108 119 136 141 146 144 148 162 112 127 284 306 259 144 180 244 233 224 209 208 218 226 238 247 250 250 249 251 253 254 253 248 242 237 235 234 234 236 234 233 236 241 241 238 239 240 242 241 238 237 235 236 238 237 234 233 231 227 225 222 219 221 224 228 231 231 231 232 231 230 233 235 235 237 236 235 235 238 240 230 224 230 233 232 231 225 225 223 213 214 223 235 245 244 227
146 150 128 147 159 162 181 169 167 194 136 116 334 308 262 179 222 248 236 222 218 203 213 217 227 243 249 247 241 244 250 249 247 249 251 249 246 243 241 243 243 241 241 243 242 240 239 239 240 240 237 237 237 236 237 236 230 229 234 234 232 227 222 223 226 229 231 231 230 230 231 229 230 234 234 234 235 236 237 240 243 239 230 233 238 236 231 226 228 226 214 210 220 234 244 248 238
165 204 241 154 169 205 187 165 166 194 132 139 93 308 262 210 228 244 231 218 218 208 218 217 224 240 249 248 239 240 246 247 247 252 257 256 254 251 248 246 245 245 244 243 242 241 241 240 240 240 238 236 237 237 237 237 232 230 234 237 238 234 230 229 230 231 231 230 231 230 230 229 228 231 232 233 235 236 236 240 244 243 238 237 239 238 234 230 232 229 217 213 218 230 240 241 234
168 175 300 206 195 191 168 150 163 184 147 166 150 240 266 294 226 217 198 205 211 215 228 231 236 240 241 243 240 241 247 254 257 257 256 256 256 256 254 249 246 246 244 242 242 242 242 242 242 242 240 238 238 239 238 239 237 234 235 238 242 242 238 233 230 232 233 230 231 232 232 232 231 232 234 235 236 235 234 237 241 245 244 239 236 235 236 234 233 229 220 216 216 223 231 229 218
180 140 263 238 220 167 144 150 164 172 160 178 176 229 261 285 165 173 186 197 203 221 236 237 238 238 236 237 238 245 253 261 265 261 257 255 253 255 256 253 249 247 245 243 242 241 241 242 242 241 241 240 240 242 241 239 239 238 236 236 241 245 245 240 231 228 232 232 232 235 236 235 234 234 237 239 240 239 236 237 239 243 245 239 233 231 235 237 233 228 220 219 221 225 226 219 205
215 180 239 210 194 185 168 277 178 137 126 185 211 253 279 266 165 166 185 201 209 228 244 246 241 237 235 235 237 245 252 257 262 263 260 256 253 253 255 255 253 251 249 247 243 241 241 241 240 239 238 239 240 242 242 240 239 240 239 235 236 241 245 246 237 228 228 232 234 238 240 237 232 232 236 241 243 239 237 240 239 241 243 238 233 232 236 239 235 228 219 215 223 230 226 215 201
203 194 249 223 174 188 174 330 219 162 178 231 221 231 266 271 238 211 210 216 214 221 240 247 242 236 236 237 240 244 248 253 258 261 262 261 258 254 253 254 253 251 250 249 246 243 242 242 242 240 238 237 238 240 240 239 237 238 240 237 234 238 243 245 243 234 230 232 233 236 240 238 233 232 237 241 240 235 233 237 239 241 243 237 232 231 235 238 234 229 221 213 218 227 225 216 205
183 182 221 213 194 244 235 115 175 179 203 260 233 232 251 263 267 261 257 245 225 225 238 243 243 243 247 249 248 248 248 252 258 260 261 263 261 255 251 249 247 246 248 249 248 245 243 243 243 242 239 236 236 239 238 237 235 235 236 235 233 235 240 244 245 241 236 235 235 236 238 239 237 234 237 240 239 235 233 235 238 240 240 237 233 230 233 235 232 227 222 216 215 218 220 216 209
40 135 188 219 214 251 162 104 123 199 189 240 240 244 249 257 262 261 260 251 234 230 235 239 243 246 251 253 251 248 246 251 256 258 258 260 260 257 251 248 246 245 250 253 252 249 246 245 245 243 241 238 236 237 237 236 234 233 233 233 234 236 240 244 246 246 242 239 240 241 241 241 240 236 236 238 238 238 239 240 241 238 235 235 234 232 234 237 236 230 222 217 216 212 209 209 211
22 23 12 341 358 12 92 98 17 355 320 245 244 251 255 260 263 263 265 262 251 243 239 239 240 242 245 249 251 250 249 253 255 253 254 258 260 259 255 252 251 250 252 255 254 254 252 249 248 247 245 242 239 238 238 237 236 235 235 236 239 241 243 246 248 249 247 243 243 244 244 242 240 236 235 237 238 239 242 244 243 238 234 235 237 235 237 240 239 233 221 217 220 214 207 206 210
39 18 1 351 290 167 73 84 193 50 28 266 273 278 270 264 269 273 270 266 257 248 245 245 244 244 245 248 253 255 255 257 255 249 249 252 255 256 256 255 254 255 256 257 256 256 254 251 251 251 249 247 245 243 241 241 241 240 240 242 245 246 248 249 250 251 251 249 247 244 242 239 235 234 233 236 239 239 240 243 244 241 235 235 237 235 236 238 237 233 223 216 217 216 214 213 212
76 102 16 334 258 156 73 58 180 100 138 271 303 302 282 271 266 268 263 256 254 248 243 244 244 243 243 246 254 257 257 257 253 248 246 247 251 253 253 255 257 258 258 256 254 252 251 251 251 251 251 250 249 248 246 246 246 245 245 245 247 249 250 251 252 251 251 251 249 245 241 236 233 231 231 234 237 237 239 242 246 244 235 233 235 232 232 234 235 234 227 221 217 213 214 217 217
161 171 137 237 239 103 59 346 276 219 209 268 320 309 283 274 257 253 248 245 251 253 248 247 246 243 243 248 255 256 254 254 250 247 246 245 247 250 252 256 258 259 258 256 253 251 250 250 251 252 251 252 252 251 250 249 247 246 246 246 246 247 250 251 250 249 249 248 247 244 239 236 232 229 230 233 232 233 237 240 244 243 237 236 238 234 233 234 234 232 225 221 220 214 212 214 215
216 199 190 223 228 108 108 41 295 246 223 292 331 311 281 274 253 258 253 241 246 254 251 248 245 241 243 247 252 253 250 249 247 245 246 246 247 251 254 257 258 259 261 261 259 254 252 251 250 252 252 251 251 251 252 250 248 246 245 245 245 246 247 249 249 248 247 246 244 240 236 235 231 226 228 232 232 232 234 236 241 242 240 242 242 239 238 239 238 232 223 218 219 218 217 217 215
235 211 206 239 271 83 91 36 359 336 318 281 6 333 290 305 300 291 303 278 254 255 246 242 242 238 240 245 250 252 252 250 246 242 243 246 248 250 253 255 258 263 265 265 263 257 253 251 250 251 251 251 250 250 251 251 250 248 246 246 247 248 249 250 252 251 248 246 243 238 234 233 230 225 226 231 234 233 234 237 239 238 239 239 238 238 237 237 238 234 226 222 223 224 224 224 223
269 261 324 329 49 78 83 19 16 0 292 248 124 61 279 305 297 280 288 289 271 262 253 250 248 239 239 248 254 258 260 258 252 245 239 242 248 250 253 257 261 265 265 261 258 254 250 249 248 248 249 250 250 249 250 251 251 250 249 249 250 251 253 254 255 253 250 248 244 240 235 231 229 226 228 233 237 239 240 240 237 233 233 233 234 235 234 235 238 236 231 229 229 228 228 229 232
260 268 319 16 82 92 109 62 229 236 319 287 170 161 257 283 281 274 268 268 265 258 257 257 252 243 240 247 254 259 261 257 255 251 242 240 246 252 255 258 261 261 259 257 256 254 250 248 247 247 248 249 251 252 252 252 253 253 253 252 251 253 254 256 256 253 250 246 243 241 236 229 227 227 230 234 237 239 239 235 231 230 230 232 233 235 237 239 238 235 232 230 229 228 229 233 235
249 256 318 81 93 93 116 96 266 304 12 304 206 152 259 258 265 279 264 259 267 254 247 251 250 245 237 231 232 240 244 242 247 251 248 240 240 247 252 254 256 257 258 260 260 258 253 251 249 249 250 252 254 255 255 254 254 255 255 255 254 255 256 256 255 252 248 244 242 241 236 229 227 228 230 231 229 230 229 227 228 231 231 233 236 238 240 240 239 237 235 231 229 227 229 232 233
205 206 89 84 91 75 75 96 56 15 336 256 197 166 256 262 235 246 249 252 255 247 250 258 242 214 194 190 207 223 228 227 230 238 249 246 235 238 245 245 243 248 255 261 263 263 260 257 255 254 255 256 257 256 256 255 255 255 255 256 256 256 255 254 253 250 245 242 240 239 235 230 227 227 228 226 224 225 226 228 233 235 236 237 239 240 239 237 235 234 236 235 231 228 227 228 230
156 167 102 84 77 58 43 84 80 36 279 262 194 181 207 280 250 214 221 229 217 233 251 185 97 116 143 167 190 204 202 192 201 247 263 250 226 215 221 227 232 250 262 265 265 265 264 262 259 258 256 256 256 256 256 256 256 256 255 256 256 255 254 253 251 249 244 241 238 236 234 231 228 227 228 227 226 228 229 231 236 238 239 240 239 238 240 238 233 230 234 236 232 229 228 229 230
128 140 116 93 23 32 23 8 65 201 250 293 270 190 194 247 264 302 326 14 102 177 195 126 115 120 136 159 192 220 240 241 254 270 257 237 225 218 223 236 247 263 270 270 268 265 263 261 258 256 255 255 257 258 259 260 259 258 256 255 254 253 252 252 251 249 246 242 238 236 235 231 227 226 228 228 228 229 230 232 236 238 239 237 234 233 237 240 238 236 237 235 230 225 225 230 232
109 147 122 107 339 17 350 254 158 225 239 275 327 357 247 242 255 303 311 318 307 249 82 83 101 132 156 196 253 265 261 262 267 262 248 240 242 241 242 248 254 265 275 273 270 267 263 261 258 257 257 259 263 264 265 265 264 262 258 255 254 252 250 250 250 249 248 245 241 238 237 233 227 226 228 228 228 229 231 233 236 237 237 235 233 232 233 236 241 243 243 239 232 225 226 232 234
189 168 142 146 166 188 238 229 212 236 248 298 327 350 268 267 275 257 259 272 286 314 330 330 330 315 295 295 297 281 265 263 265 255 246 248 253 253 252 255 258 266 276 275 271 267 265 263 261 263 264 266 270 273 273 272 269 266 260 257 256 253 250 249 250 249 248 247 244 242 240 236 231 229 229 230 230 232 236 236 234 235 237 237 236 235 234 235 241 246 246 242 233 227 232 238 237
199 188 162 175 172 188 212 190 207 228 244 312 319 288 206 220 275 255 252 283 308 320 306 292 299 299 296 300 296 278 263 263 264 254 251 260 265 262 258 259 260 265 272 273 270 267 266 267 267 268 270 272 275 277 278 276 272 268 263 260 258 256 254 251 251 250 248 247 246 243 239 236 233 231 231 233 232 233 236 235 233 235 240 240 237 237 238 240 243 245 245 242 234 230 233 237 237
221 201 189 218 197 174 183 164 177 153 14 295 231 246 221 204 270 273 275 282 280 285 286 276 276 279 283 290 294 289 278 273 267 263 272 283 282 275 269 263 258 260 267 268 268 268 269 271 271 271 270 270 272 275 277 278 276 272 267 263 260 258 256 253 252 251 249 247 246 244 239 233 231 231 232 235 235 234 235 235 237 242 241 237 236 239 244 247 248 248 246 241 235 231 231 233 235
208 173 202 216 128 111 167 262 57 104 268 263 188 259 283 305 287 261 240 254 255 255 259 258 269 278 284 289 298 303 297 290 284 287 294 294 287 285 282 272 261 261 264 265 265 266 267 265 261 260 261 264 270 277 282 287 287 284 279 272 265 260 257 256 255 253 251 249 246 244 237 230 229 230 231 233 234 235 237 238 242 243 238 233 234 239 245 249 249 249 247 242 236 233 231 232 234
132 176 206 131 44 35 139 216 355 126 247 261 187 251 282 308 281 262 190 276 261 230 236 240 250 255 259 277 291 297 296 297 299 302 303 295 291 293 290 279 269 262 258 259 259 254 250 246 244 249 259 270 281 289 296 300 297 292 289 283 275 269 264 262 260 256 253 249 247 243 235 229 228 228 230 232 233 235 237 237 239 239 234 232 235 239 243 250 249 244 241 239 238 237 233 232 232
106 189 235 100 123 248 140 170 232 211 239 268 249 255 264 239 250 283 347 318 282 251 248 233 219 215 232 265 286 294 294 297 303 309 311 310 308 302 290 276 266 256 250 247 241 234 230 231 237 252 267 278 285 295 302 303 299 292 289 289 284 278 273 269 265 260 254 250 247 243 237 231 228 228 232 235 236 237 237 235 237 235 231 232 238 239 242 253 251 243 237 235 234 235 235 233 232
29 -0 343 81 150 185 169 183 196 185 216 251 266 270 258 237 242 272 280 266 258 256 257 235 187 174 256 320 314 300 296 299 308 315 318 318 314 306 293 276 263 252 242 232 223 220 221 229 240 251 259 267 274 284 292 295 298 294 289 291 291 286 280 274 268 262 257 252 247 243 239 234 230 231 234 237 238 238 237 238 238 235 231 234 239 240 243 250 251 246 241 236 232 233 235 234 232
168 287 216 191 146 119 142 243 196 173 196 231 253 266 261 245 220 228 236 244 259 230 124 117 86 41 356 340 315 292 291 303 315 322 325 321 312 306 293 274 259 245 231 221 217 218 221 231 241 245 250 260 265 272 280 285 290 290 288 291 294 291 284 276 270 263 258 253 248 244 240 235 232 234 237 238 238 238 240 240 237 236 235 236 237 240 244 245 247 248 245 237 234 234 232 231 232
188 194 196 197 189 150 182 247 223 176 187 207 217 260 270 256 179 206 245 29 33 63 67 13 341 336 325 315 296 281 298 317 325 329 328 320 308 297 282 264 250 237 227 221 221 223 228 235 240 244 249 256 263 267 271 274 277 281 283 288 291 290 284 277 271 263 258 254 249 245 241 236 234 236 238 238 237 239 241 237 234 236 237 236 237 241 242 244 247 249 246 241 237 234 231 231 232